Weather History for Worthington, MN

Change the Weather History Date:

Monday, February 4, 2013

  Actual Average Record
Temperature  
Mean Temperature 14 °F -  
Max Temperature 21 °F 26 °F 59 °F (2005)
Min Temperature 6 °F 10 °F -24 °F (1989)
Degree Days  
Heating Degree Days 52    
Moisture  
Dew Point 7 °F    
Average Humidity 72    
Maximum Humidity 80    
Minimum Humidity 58    
Precipitation  
Precipitation 0.00 in - - ()
Sea Level Pressure  
Sea Level Pressure 29.89 in    
Wind  
Wind Speed 12 mph (WNW)    
Max Wind Speed 22 mph    
Max Gust Speed 25 mph    
Visibility 10 miles    
Events      
Averages and records for this station are not official NWS values.
T = Trace of Precipitation, MM = Missing Value Source: NWS Daily Summary

Daily Weather History Graph

Daily Weather History Graph

Search for Another Location

Airport:

Trip Planner

Search our weather history database for the weather conditions in past years. The results will help you decide how hot, cold, wet, or windy it might be!

Date:

Astronomy

Feb. 04, 2013 Rise Set
Actual Time 7:35 AM CST 5:38 PM CST
Civil Twilight 7:04 AM CST 6:08 PM CST
Nautical Twilight 6:30 AM CST 6:42 PM CST
Astronomical Twilight 5:57 AM CST 7:15 PM CST
Moon 2:14 AM CST (2/4) 11:59 AM CST (2/4)
Length of Visible Light 11h 03m
Length of Day
10h 02m
Last Quarter, 37% of the Moon is Illuminated
Feb 4
Last Quarter
Feb 10
New
Feb 17
First Quarter
Feb 25
Full
Mar 4
Last Quarter

Hourly Weather History & Observations

Time (CST) Temp. Windchill Dew Point Humidity Pressure Visibility Wind Dir Wind Speed Gust Speed Precip Events Conditions
12:15 AM 15.8 °F -0.6 °F 8.6 °F 73% 29.85 in 10.0 mi NNE 18.4 mph - N/A   Overcast
12:35 AM 14.0 °F -2.5 °F 8.6 °F 79% 29.85 in 10.0 mi NNE 17.3 mph 20.7 mph N/A   Overcast
12:55 AM 14.0 °F -1.4 °F 8.6 °F 79% 29.85 in 10.0 mi NNE 15.0 mph 20.7 mph N/A   Overcast
1:15 AM 14.0 °F -2.5 °F 8.6 °F 79% 29.85 in 10.0 mi NNE 17.3 mph - N/A   Overcast
1:35 AM 14.0 °F -2.5 °F 6.8 °F 73% 29.86 in 10.0 mi NNE 17.3 mph - N/A   Overcast
1:55 AM 12.2 °F -3.7 °F 6.8 °F 79% 29.86 in 10.0 mi NNE 15.0 mph - N/A   Overcast
2:15 AM 12.2 °F -3.7 °F 6.8 °F 79% 29.87 in 10.0 mi NNE 15.0 mph - N/A   Overcast
2:35 AM 12.2 °F -4.3 °F 6.8 °F 79% 29.89 in 10.0 mi NNE 16.1 mph - N/A   Overcast
2:55 AM 12.2 °F -3.7 °F 6.8 °F 79% 29.88 in 10.0 mi NNE 15.0 mph - N/A   Overcast
3:15 AM 12.2 °F -1.8 °F 5.0 °F 73% 29.89 in 9.0 mi North 11.5 mph 17.3 mph N/A   Overcast
4:55 AM 10.4 °F -5.4 °F 3.2 °F 73% 29.93 in 10.0 mi North 13.8 mph - N/A   Overcast
5:15 AM 10.4 °F -5.4 °F 3.2 °F 73% 29.93 in 8.0 mi NNE 13.8 mph 18.4 mph N/A   Mostly Cloudy
5:35 AM 10.4 °F -4.1 °F 3.2 °F 73% 29.94 in 6.0 mi North 11.5 mph - N/A   Scattered Clouds
5:55 AM 8.6 °F -7.0 °F 1.4 °F 73% 29.95 in 9.0 mi North 12.7 mph - N/A   Mostly Cloudy
6:15 AM 8.6 °F -6.3 °F 3.2 °F 79% 29.95 in 9.0 mi North 11.5 mph 17.3 mph N/A   Overcast
6:35 AM 8.6 °F -5.5 °F 1.4 °F 73% 29.95 in 5.0 mi NNE 10.4 mph - N/A   Mostly Cloudy
6:55 AM 8.6 °F -5.5 °F 1.4 °F 73% 29.96 in 10.0 mi North 10.4 mph - N/A   Mostly Cloudy
7:15 AM 8.6 °F -4.7 °F 1.4 °F 73% 29.98 in 10.0 mi North 9.2 mph - N/A   Mostly Cloudy
7:35 AM 6.8 °F -6.9 °F 1.4 °F 79% 29.97 in 10.0 mi North 9.2 mph - N/A   Partly Cloudy
7:55 AM 6.8 °F -5.9 °F 1.4 °F 79% 29.97 in 10.0 mi North 8.1 mph - N/A   Clear
8:15 AM 6.8 °F -4.8 °F 1.4 °F 79% 29.97 in 10.0 mi NNE 6.9 mph - N/A   Clear
8:35 AM 6.8 °F -5.9 °F 1.4 °F 79% 29.98 in 10.0 mi North 8.1 mph - N/A   Clear
8:55 AM 8.6 °F -4.7 °F 1.4 °F 73% 29.98 in 10.0 mi NNE 9.2 mph - N/A   Clear
9:15 AM 8.6 °F -4.7 °F 1.4 °F 73% 29.99 in 10.0 mi NNE 9.2 mph - N/A   Clear
9:35 AM 8.6 °F -4.7 °F 1.4 °F 73% 30.00 in 10.0 mi North 9.2 mph - N/A   Clear
9:55 AM 10.4 °F -0.4 °F 1.4 °F 67% 30.00 in 10.0 mi NNE 6.9 mph - N/A   Clear
10:15 AM 10.4 °F 2.2 °F 1.4 °F 67% 30.00 in 10.0 mi NNE 4.6 mph - N/A   Partly Cloudy
10:35 AM 12.2 °F - 3.2 °F 67% 29.99 in 9.0 mi Calm Calm - N/A   Clear
10:55 AM 12.2 °F - 1.4 °F 62% 29.99 in 10.0 mi Calm Calm - N/A   Partly Cloudy
11:15 AM 12.2 °F 4.3 °F 3.2 °F 67% 29.99 in 10.0 mi ENE 4.6 mph - N/A   Clear
11:35 AM 14.0 °F 8.2 °F 3.2 °F 62% 29.98 in 10.0 mi ENE 3.5 mph - N/A   Clear
11:55 AM 14.0 °F 8.2 °F 3.2 °F 62% 29.96 in 10.0 mi ENE 3.5 mph - N/A   Clear
12:15 PM 15.8 °F - 5.0 °F 62% 29.97 in 10.0 mi Calm Calm - N/A   Clear
12:35 PM 15.8 °F - 3.2 °F 58% 29.97 in 10.0 mi Calm Calm - N/A   Clear
12:55 PM 15.8 °F - 5.0 °F 62% 29.97 in 10.0 mi Calm Calm - N/A   Clear
1:15 PM 15.8 °F 10.2 °F 6.8 °F 68% 29.97 in 10.0 mi SW 3.5 mph - N/A   Clear
1:35 PM 17.6 °F 12.3 °F 6.8 °F 63% 29.96 in 10.0 mi NW 3.5 mph - N/A   Partly Cloudy
1:55 PM 17.6 °F 12.3 °F 6.8 °F 63% 29.95 in 10.0 mi West 3.5 mph - N/A   Partly Cloudy
2:15 PM 17.6 °F 10.7 °F 8.6 °F 68% 29.94 in 10.0 mi SW 4.6 mph - N/A   Mostly Cloudy
2:35 PM 17.6 °F 9.3 °F 8.6 °F 68% 29.93 in 10.0 mi SW 5.8 mph - N/A   Mostly Cloudy
2:55 PM 19.4 °F 10.4 °F 8.6 °F 63% 29.93 in 10.0 mi West 6.9 mph - N/A   Mostly Cloudy
3:15 PM 19.4 °F 10.4 °F 10.4 °F 68% 29.93 in 10.0 mi SW 6.9 mph - N/A   Overcast
3:35 PM 19.4 °F 10.4 °F 10.4 °F 68% 29.92 in 10.0 mi WSW 6.9 mph - N/A   Mostly Cloudy
3:55 PM 19.4 °F 9.5 °F 10.4 °F 68% 29.90 in 10.0 mi SW 8.1 mph - N/A   Partly Cloudy
4:15 PM 19.4 °F 8.6 °F 10.4 °F 68% 29.89 in 10.0 mi SSW 9.2 mph - N/A   Clear
4:35 PM 19.4 °F 8.6 °F 10.4 °F 68% 29.88 in 10.0 mi SSW 9.2 mph - N/A   Clear
4:55 PM 19.4 °F 8.6 °F 10.4 °F 68% 29.88 in 10.0 mi SSW 9.2 mph - N/A   Clear
5:15 PM 19.4 °F 8.6 °F 10.4 °F 68% 29.87 in 10.0 mi SSW 9.2 mph - N/A   Clear
5:35 PM 19.4 °F 7.9 °F 10.4 °F 68% 29.87 in 10.0 mi SSW 10.4 mph - N/A   Scattered Clouds
5:55 PM 19.4 °F 8.6 °F 10.4 °F 68% 29.85 in 10.0 mi South 9.2 mph - N/A   Partly Cloudy
6:15 PM 19.4 °F 7.9 °F 10.4 °F 68% 29.85 in 10.0 mi South 10.4 mph - N/A   Partly Cloudy
6:35 PM 19.4 °F 6.6 °F 12.2 °F 74% 29.84 in 10.0 mi SSW 12.7 mph - N/A   Mostly Cloudy
6:55 PM 19.4 °F 6.6 °F 12.2 °F 74% 29.82 in 10.0 mi SSW 12.7 mph - N/A   Overcast
7:15 PM 19.4 °F 5.0 °F 12.2 °F 74% 29.82 in 10.0 mi SSW 16.1 mph - N/A   Mostly Cloudy
7:35 PM 19.4 °F 6.6 °F 12.2 °F 74% 29.83 in 10.0 mi SSW 12.7 mph 18.4 mph N/A   Mostly Cloudy
7:55 PM 19.4 °F 6.0 °F 12.2 °F 74% 29.81 in 10.0 mi SSW 13.8 mph - N/A   Partly Cloudy
8:15 PM 19.4 °F 6.6 °F 12.2 °F 74% 29.82 in 10.0 mi SW 12.7 mph - N/A   Clear
8:35 PM 19.4 °F 5.5 °F 12.2 °F 74% 29.82 in 10.0 mi SW 15.0 mph - N/A   Clear
8:55 PM 21.2 °F 7.8 °F 12.2 °F 68% 29.81 in 10.0 mi SW 15.0 mph 19.6 mph N/A   Scattered Clouds
9:15 PM 21.2 °F 7.8 °F 14.0 °F 74% 29.80 in 10.0 mi SW 15.0 mph - N/A   Scattered Clouds
9:35 PM 21.2 °F 9.5 °F 14.0 °F 74% 29.79 in 10.0 mi SW 11.5 mph - N/A   Mostly Cloudy
9:55 PM 21.2 °F 6.8 °F 14.0 °F 74% 29.78 in 10.0 mi SW 17.3 mph 21.9 mph N/A   Mostly Cloudy
10:15 PM 21.2 °F 6.0 °F 14.0 °F 74% 29.77 in 10.0 mi SW 19.6 mph 23.0 mph N/A   Overcast
10:35 PM 21.2 °F 7.8 °F 14.0 °F 74% 29.77 in 10.0 mi SW 15.0 mph 24.2 mph N/A   Overcast
10:55 PM 21.2 °F 6.0 °F 14.0 °F 74% 29.75 in 10.0 mi SW 19.6 mph 25.3 mph N/A   Overcast
11:15 PM 21.2 °F 5.2 °F 15.8 °F 80% 29.74 in 10.0 mi SW 21.9 mph 25.3 mph N/A   Overcast
11:35 PM 21.2 °F 6.0 °F 14.0 °F 74% 29.72 in 10.0 mi SW 19.6 mph 25.3 mph N/A   Mostly Cloudy
11:55 PM 21.2 °F 6.0 °F 15.8 °F 80% 29.72 in 10.0 mi SSW 19.6 mph - N/A   Partly Cloudy